This is the latest recevied weather packets stored in our database for station/object SAVIL. If no packets are shown the sender has not sent any weather packets the latest 10 day(s).
| Time | Temp. | Humidity | Pressure | Rain* | Wind** | Luminosity | Snow |
|---|---|---|---|---|---|---|---|
| 1777416402 | 2.78° C | 56% | 1020.8 hPa | 0 mm | - | - | - |
| 1777415202 | 2.78° C | 56% | 1020.7 hPa | 0 mm | - | - | - |
| 1777414002 | 2.78° C | 57% | 1020.6 hPa | 0 mm | - | - | - |
| 1777412802 | 2.78° C | 56% | 1020.6 hPa | 0 mm | - | - | - |
| 1777411602 | 2.78° C | 55% | 1020.5 hPa | 0 mm | - | - | - |
| 1777410402 | 2.78° C | 53% | 1020.4 hPa | 0 mm | - | - | - |
| 1777409202 | 2.78° C | 55% | 1020.3 hPa | 0 mm | - | - | - |
| 1777408002 | 2.78° C | 54% | 1020.3 hPa | 0 mm | - | - | - |
| 1777406802 | 2.78° C | 52% | 1020.3 hPa | 0 mm | - | - | - |
| 1777405601 | 2.78° C | 51% | 1020.3 hPa | 0 mm | - | - | - |
| 1777404402 | 3.33° C | 52% | 1020.1 hPa | 0 mm | - | - | - |
| 1777403201 | 2.78° C | 51% | 1020.1 hPa | 0 mm | - | - | - |
| 1777402001 | 3.33° C | 51% | 1020 hPa | 0 mm | - | - | - |
| 1777400801 | 3.33° C | 51% | 1019.8 hPa | 0 mm | - | - | - |
| 1777399601 | 3.33° C | 51% | 1019.8 hPa | 0 mm | - | - | - |
| 1777398401 | 3.33° C | 51% | 1019.7 hPa | 0 mm | - | - | - |
| 1777397201 | 3.33° C | 50% | 1019.6 hPa | 0 mm | - | - | - |
| 1777396001 | 3.33° C | 51% | 1019.5 hPa | 0 mm | - | - | - |
| 1777394801 | 3.33° C | 48% | 1019.4 hPa | 0 mm | - | - | - |
| 1777393601 | 3.33° C | 47% | 1019.2 hPa | 0 mm | - | - | - |
| 1777392401 | 3.33° C | 47% | 1019 hPa | 0 mm | - | - | - |
| 1777391201 | 3.89° C | 46% | 1018.9 hPa | 0 mm | - | - | - |
| 1777390001 | 3.89° C | 50% | 1018.8 hPa | 0 mm | - | - | - |
| 1777388801 | 3.89° C | 50% | 1018.5 hPa | 0 mm | - | - | - |
| 1777387601 | 3.89° C | 51% | 1018.4 hPa | 0 mm | - | - | - |
* Rain latest hour (hover to see other rain measurements)
** Current wind speed in m/s (hover to see current wind gust speed)